Current weather by "City, St" or "zip code"  
 

Current Conditions: Buffalo, Greater Buffalo International Airport, NY

Mostly Cloudy


65.0 F

Last Updated on Oct 21 2021, 11:54 am EDT
Humidity: 66%
Wind Speed: SW 11.5 mph
Barometer 29.85 in
Dewpoint: 53.1 F
Visibility: 10.00 mi
Precip: --
Heat Index: NA
Wind Chill: NA
Current conditions at:

Buffalo, Greater Buffalo International Airport, NY (KBUF)

Lat: 42.93998 Lon: 78.73604

Local Radar Image active severe weather and emergency alerts image image weather storm and storm spotter reports image weather observation monitoring service image
Local
Radar
Active
Alerts
Storm Reports Obs
Monitoring

Sign-up For Email & Text Message Weather Alert Notification Services



Advertise Here

Observation History for Buffalo, Greater Buffalo International Airport, NY


Time Wind
(mph)
Vis
(mi)
Weather Precip (in) Temperature (F) Relative
Humidity
Wind
Chill
(F)
Heat
Index
(F)
Pressure
Air Dwpt altimeter
(in)
sea level
(mb)
Rmks
11:54 am EDT SW 11.5 10.00 Mostly Cloudy -- 65.0 53.1 66% NA NA 29.85 1010.8
10:54 am EDT SW 11.5 10.00 Mostly Cloudy -- 63.0 52.0 68% 62 NA 29.86 1011.1
9:54 am EDT S 10.4 10.00 Overcast -- 61.0 52.0 72% 60 NA 29.89 1012.2
8:54 am EDT S 10.4 10.00 Overcast -- 59.0 52.0 78% 57 NA 29.90 1012.4
7:54 am EDT S 6.9 10.00 Mostly Cloudy Trace 57.0 51.1 81% 56 NA 29.90 1012.3
6:54 am EDT S 5.8 10.00 Light Rain Trace 58.0 52.0 81% 57 NA 29.91 1012.7
5:54 am EDT S 6.9 10.00 Light Rain 00.03 59.0 52.0 78% 58 NA 29.90 1012.3
4:54 am EDT S 9.2 10.00 Overcast -- 60.0 48.9 67% 59 NA 29.93 1013.6
3:54 am EDT S 5.8 10.00 Partly Cloudy -- 58.0 48.9 72% 57 NA 29.95 1014.0
2:54 am EDT S 6.9 10.00 Mostly Cloudy -- 58.0 48.9 72% 57 NA 29.95 1014.3
1:54 am EDT S 6.9 10.00 Mostly Cloudy -- 57.0 50.0 78% 56 NA 29.96 1014.6
12:54 am EDT S 6.9 10.00 Mostly Cloudy -- 58.0 53.1 84% 57 NA 29.98 1015.3
11:54 pm EDT S 5.8 10.00 Partly Cloudy -- 57.0 54.0 90% 56 NA 29.99 1015.5
10:54 pm EDT S 8.1 10.00 Mostly Cloudy -- 58.0 54.0 87% 56 NA 30.00 1015.8
9:54 pm EDT S 6.9 10.00 Partly Cloudy -- 57.0 53.1 87% 56 NA 30.00 1016.0
8:54 pm EDT SW 5.8 10.00 A Few Clouds -- 61.0 53.1 75% 61 NA 30.01 1016.1
7:54 pm EDT SW 9.2 10.00 Mostly Cloudy -- 63.0 53.1 70% 62 NA 30.02 1016.6
6:54 pm EDT SW 6.9 10.00 Mostly Cloudy -- 62.0 52.0 70% 62 NA 30.01 1016.4
5:54 pm EDT W 10.4 10.00 Mostly Cloudy -- 64.0 50.0 60% NA NA 30.01 1016.0
4:54 pm EDT SW 13.8 G 25.3 10.00 Mostly Cloudy -- 64.0 54.0 70% NA NA 30.02 1016.7
3:54 pm EDT SW 15.0 10.00 Mostly Cloudy Trace 65.0 57.0 76% NA NA 30.03 1016.7
2:54 pm EDT SW 16.1 G 25.3 10.00 Overcast Trace 64.0 57.0 78% NA NA 30.02 1016.5
1:54 pm EDT SW 19.6 G 28.8 10.00 Overcast -- 65.0 57.0 76% NA NA 30.05 1017.5
12:54 pm EDT SW 17.3 G 23.0 10.00 Mostly Cloudy Trace 63.0 57.0 81% 61 NA 30.07 1018.1

Regional Weather Observation


Buffalo, Greater Buffalo International Airport, NY (KBUF)

Mostly Cloudy
65.0 F

Genesee County Airport, NY (KGVQ)

Fair
63.0 F

Dunkirk, Chautauqua County / Dunkirk Airport, NY (KDKK)

Fair
67.0 F

Cattaraugus County-Olean Airport, NY (KOLE)

Overcast
45.0 F

Jamestown, Chautauqua County/Jamestown Airport, NY (KJHW)

Fair
63.0 F

Rochester, Greater Rochester International Airport, NY (KROC)

Mostly Cloudy
63.0 F

Advertise Here


Advertise Here